Location: Allen Lane School
(37.8198°N, 89.7382°W)
Time: 04:52:57
(UTC+00:00)

Meteor 1-14 Rocket - Pass Details

Date: 29 June 2022
Orbit: 833 x 919 km, 81.3° (Epoch: 14 August)

Event Time Altitude Azimuth Distance (km) Brightness Sun altitude
Rises 09:43:31 0° 171° (S) 3,525 7.1 -9.9°
Reaches altitude 10° 09:46:03 10° 166° (SSE) 2,578 6.5 -9.5°
Maximum altitude 09:51:41 49° 93° (E) 1,140 5.3 -8.7°
Drops below altitude 10° 09:57:14 10° 21° (NNE) 2,542 7.7 -7.8°
Sets 09:59:43 0° 16° (NNE) 3,471 8.3 -7.4°
